Vivien A — TCYC4 — position and weather

sailwx.info

Track history (hours):
 
Tides and Currents Weather Stations Pressure Air Temp Water Temp Dewpoint Dewpoint Depression Visibility Wind Speed Wind Dir Waves Ship Positions

Vivien A

Last reported at 2015-Jul-05 16:14 UTC. Time now 2015-Jul-07 13:11 UTC.
Position N 36°08' W 005°24'.

Length 210 m; draft 8.7 m.

Type: Ship (hazmat cat A). MMSI: 271040635.

Date/timePositionNaut miles runAvg speedWind from/ knotsBaromVisibWave heightAir tempDewpointWater temp
2015-Jul-05 16:14N 36°08' W 005°24'5 7.6
2015-Jul-05 15:33N 36°04' W 005°20'12 1.6
2015-Jul-05 08:20N 36°12' W 005°09'5 7.0
2015-Jul-05 07:33N 36°08' W 005°13'1212.2
2015-Jul-05 06:33N 35°59' W 005°23'89 9.9
2015-Jul-04 21:32N 35°09' W 006°54'1010.1
2015-Jul-04 20:33N 35°02' W 007°03'42 9.9
2015-Jul-04 16:22N 34°32' W 007°38'810.3
2015-Jul-04 15:33N 34°26' W 007°45'1010.4
2015-Jul-04 14:33N 34°19' W 007°54'4210.5
2015-Jul-04 10:31N 33°49' W 008°30'1210.4
2015-Jul-04 09:22N 33°41' W 008°40'810.2
2015-Jul-04 08:33N 33°35' W 008°48'2210.1
2015-Jul-04 06:25N 33°20' W 009°06'5110.1
2015-Jul-04 01:23N 32°44' W 009°48'8 9.6
2015-Jul-04 00:31N 32°38' W 009°56'9 9.6
2015-Jul-03 23:33N 32°31' W 010°03'22 9.5
2015-Jul-03 21:16N 32°16' W 010°21'17 9.4
2015-Jul-03 19:29N 32°04' W 010°35'9 9.4
2015-Jul-03 18:33N 31°57' W 010°42'12 9.5
2015-Jul-03 17:19N 31°48' W 010°51'8 9.9
2015-Jul-03 16:33N 31°42' W 010°56'20 9.9
2015-Jul-03 14:33N 31°26' W 011°10'10 9.6
2015-Jul-03 13:33N 31°19' W 011°16'  
Track history (hours):
 
Tides and Currents Weather Stations Pressure Air Temp Water Temp Dewpoint Dewpoint Depression Visibility Wind Speed Wind Dir Waves Ship Positions

Vivien A

Last reported at 2015-Jul-05 16:14 UTC. Time now 2015-Jul-07 13:11 UTC.
Position N 36°08' W 005°24'.

Length 210 m; draft 8.7 m.

Type: Ship (hazmat cat A). MMSI: 271040635.

Date/timePositionNaut miles runAvg speedWind from/ knotsBaromVisibWave heightAir tempDewpointWater temp
2015-Jul-05 16:14N 36°08' W 005°24'5 7.6
2015-Jul-05 15:33N 36°04' W 005°20'12 1.6
2015-Jul-05 08:20N 36°12' W 005°09'5 7.0
2015-Jul-05 07:33N 36°08' W 005°13'1212.2
2015-Jul-05 06:33N 35°59' W 005°23'89 9.9
2015-Jul-04 21:32N 35°09' W 006°54'1010.1
2015-Jul-04 20:33N 35°02' W 007°03'42 9.9
2015-Jul-04 16:22N 34°32' W 007°38'810.3
2015-Jul-04 15:33N 34°26' W 007°45'1010.4
2015-Jul-04 14:33N 34°19' W 007°54'4210.5
2015-Jul-04 10:31N 33°49' W 008°30'1210.4
2015-Jul-04 09:22N 33°41' W 008°40'810.2
2015-Jul-04 08:33N 33°35' W 008°48'2210.1
2015-Jul-04 06:25N 33°20' W 009°06'5110.1
2015-Jul-04 01:23N 32°44' W 009°48'8 9.6
2015-Jul-04 00:31N 32°38' W 009°56'9 9.6
2015-Jul-03 23:33N 32°31' W 010°03'22 9.5
2015-Jul-03 21:16N 32°16' W 010°21'17 9.4
2015-Jul-03 19:29N 32°04' W 010°35'9 9.4
2015-Jul-03 18:33N 31°57' W 010°42'12 9.5
2015-Jul-03 17:19N 31°48' W 010°51'8 9.9
2015-Jul-03 16:33N 31°42' W 010°56'20 9.9
2015-Jul-03 14:33N 31°26' W 011°10'10 9.6
2015-Jul-03 13:33N 31°19' W 011°16'  

Dump ship's entire track history